Theta_e
328 326 328 325 323 323 319 316 302 306 308 298 298 301 297 303 303 303 303 305 302 305 306 307 306 304 304 304 305 307 307 305 305 301 301 316 327 330 333 341 336 337 343 345 349 352 353 350 352 354 355 355 355 354 354 353 353 352 352 351 350 350 348 348 346 346 346 347 348 348 349 349 349 348 348 347 348 348 348 348 348 349 348 348 348 348 347 347 346 346 345 344 342 341 340 339 339
325 327 325 328 322 320 314 310 305 300 301 297 297 300 300 302 302 302 302 303 304 305 305 306 307 306 305 306 307 306 307 309 309 309 313 317 322 326 329 336 337 338 342 345 349 350 352 355 349 353 355 354 355 354 354 353 353 352 352 351 351 350 349 347 346 347 347 347 348 349 348 348 348 348 348 347 347 348 348 348 347 348 349 348 347 347 347 346 346 346 344 343 342 340 340 339 338
324 324 325 321 321 318 314 310 300 300 297 294 296 299 302 301 301 302 303 304 305 305 305 305 305 305 307 306 305 305 304 309 309 310 311 320 319 326 331 331 337 342 341 345 349 349 352 352 347 352 355 354 354 354 353 353 353 352 351 351 351 350 349 347 346 346 347 348 348 348 348 347 347 347 347 346 346 347 347 348 347 348 348 348 347 347 346 346 346 345 344 342 341 339 338 337 336
327 323 319 319 313 315 308 306 303 299 296 296 296 300 301 301 301 303 304 304 305 304 305 306 306 308 307 305 306 307 308 308 311 311 313 320 322 329 330 332 337 340 342 346 349 349 351 350 346 352 355 354 354 354 353 353 352 352 351 351 350 350 349 348 346 346 346 347 348 348 347 347 347 346 347 347 346 346 346 346 346 347 347 348 347 346 346 345 346 344 343 341 339 338 336 334 334
327 322 321 318 317 308 308 304 301 301 294 297 295 300 301 302 302 303 304 304 305 304 306 307 307 307 308 307 308 306 306 311 311 311 313 325 330 331 333 336 339 341 340 345 349 349 350 345 345 348 355 355 354 354 353 353 352 352 351 351 350 350 349 348 347 346 346 346 348 348 348 346 347 346 346 346 345 345 345 346 347 347 346 346 346 346 345 345 344 344 343 340 338 337 334 332 330
324 322 322 320 310 311 308 302 299 299 300 301 298 300 302 302 302 302 304 306 305 305 305 306 306 306 306 307 309 309 310 307 311 315 317 327 330 331 335 339 339 340 340 345 348 349 349 342 345 347 354 355 355 354 353 353 353 352 351 351 350 350 350 348 347 346 345 346 348 347 347 347 347 346 346 345 345 345 346 345 345 346 346 346 346 344 345 344 343 343 341 339 339 337 332 330 328
318 318 318 316 312 313 304 300 299 299 300 300 301 302 303 303 302 301 305 305 304 305 304 306 305 306 304 306 307 310 311 310 313 318 323 328 332 332 336 339 341 340 342 345 348 350 350 341 346 350 352 352 354 354 353 353 352 352 351 351 350 350 350 349 347 347 345 346 347 347 347 347 346 347 346 345 345 345 346 346 346 346 346 346 345 345 344 343 342 342 341 340 338 335 331 328 327
318 316 314 310 305 309 302 301 300 302 299 301 302 302 303 303 302 302 303 303 303 304 305 305 305 304 303 305 305 310 311 312 315 325 331 330 331 332 335 337 340 339 341 344 347 349 344 339 344 347 349 353 353 353 352 352 352 352 351 351 350 350 350 349 348 348 345 346 348 347 348 347 347 347 346 345 344 345 345 346 345 346 346 345 345 344 342 341 343 343 341 339 336 333 330 327 326
317 314 311 313 303 305 301 300 300 300 301 301 303 304 306 304 304 302 303 303 304 304 305 306 306 302 303 306 306 312 314 316 314 328 327 330 329 331 333 334 336 339 340 341 344 347 349 339 342 346 347 351 352 353 353 353 352 352 351 351 350 350 349 349 349 348 348 347 347 347 347 347 347 347 346 345 345 345 345 345 346 346 345 345 344 343 341 342 341 342 341 338 335 333 329 326 325
314 313 307 308 307 300 301 299 300 300 301 302 302 303 303 302 302 302 303 303 303 303 304 303 304 303 305 304 306 310 312 315 321 324 324 328 331 333 332 331 334 336 337 339 341 344 346 341 337 340 343 348 351 352 351 353 352 350 351 351 350 350 349 348 349 348 348 348 347 347 347 346 347 346 346 345 345 346 345 345 345 345 344 343 343 341 340 340 342 342 340 337 334 331 328 325 324
307 310 310 306 301 298 298 298 299 301 301 302 303 303 303 303 302 303 302 303 302 303 304 304 305 305 305 304 307 312 312 312 315 319 324 328 330 329 334 334 335 336 336 338 340 341 343 346 337 336 340 342 347 349 350 351 352 351 351 351 350 350 350 349 349 348 348 348 348 347 347 347 346 347 346 345 345 345 345 345 345 344 343 342 342 341 340 340 340 341 339 336 333 331 327 325 324
304 306 309 302 300 299 300 299 299 301 301 302 301 302 303 302 302 303 303 302 303 303 303 304 303 305 304 303 307 309 311 311 314 320 326 330 330 329 331 332 334 333 335 337 338 340 342 345 346 341 335 336 341 344 346 348 349 350 350 349 350 349 349 349 349 348 348 348 347 347 347 347 347 346 345 344 342 344 344 344 343 342 342 342 341 340 339 341 340 339 337 334 332 329 327 324 324
309 307 302 300 300 300 299 299 299 301 301 301 302 302 301 301 302 303 303 303 303 303 303 305 305 305 302 304 307 309 307 309 316 322 326 329 330 331 332 330 332 332 332 336 338 339 340 342 344 346 343 333 334 335 339 342 344 347 349 349 349 349 349 348 348 349 348 348 348 346 347 347 346 345 345 344 343 343 343 343 345 342 342 342 340 339 339 341 340 338 335 333 331 328 326 324 324
309 309 304 299 297 299 299 300 300 299 299 301 303 302 301 302 303 303 304 303 303 302 304 305 305 305 303 305 306 307 305 308 312 320 325 327 330 326 327 331 331 331 332 334 335 337 338 339 341 343 345 346 349 342 335 336 340 345 345 345 346 346 346 347 348 348 347 347 346 346 344 343 345 346 344 344 343 342 343 342 344 342 341 341 339 339 340 340 338 336 334 332 330 327 325 324 323
309 306 305 302 298 299 298 298 299 299 299 302 301 301 302 303 302 302 303 302 303 305 304 305 306 304 301 302 304 304 304 306 310 318 323 323 324 321 322 322 323 324 324 327 332 333 334 337 339 341 342 345 347 348 349 347 334 338 342 342 342 342 344 344 344 343 342 344 343 341 339 338 337 337 338 340 341 338 337 336 342 342 341 339 339 340 340 339 337 335 333 331 329 327 325 322 322
310 308 305 299 297 298 298 299 298 300 299 302 301 299 301 303 302 302 303 303 305 307 304 304 304 303 304 303 301 302 304 306 309 315 317 317 320 318 316 315 317 317 320 319 320 322 325 332 336 339 340 342 345 346 347 347 338 332 336 338 339 339 339 340 340 338 336 335 337 336 330 336 332 338 328 340 333 338 335 337 337 339 342 340 338 340 339 338 336 335 333 331 328 326 324 322 321
307 310 299 298 295 297 299 300 300 298 301 303 301 302 302 303 304 302 302 303 303 305 304 306 304 305 301 301 302 303 305 307 310 313 314 313 313 312 314 313 314 314 316 315 316 316 319 322 330 335 338 340 342 344 346 347 346 331 334 332 333 336 335 335 336 332 328 326 329 327 326 347 347 347 344 347 328 343 331 328 333 337 341 341 340 340 339 338 336 335 333 331 327 323 321 318 317
309 302 299 297 298 297 301 301 302 302 302 302 302 301 302 301 304 305 303 301 302 304 304 304 303 302 303 302 304 304 306 306 307 308 309 309 310 309 310 310 311 311 313 313 315 314 315 317 321 328 335 337 339 342 344 345 347 339 349 349 347 343 334 330 342 348 338 347 324 337 346 344 346 345 346 338 346 345 338 324 328 335 339 337 338 340 339 338 336 334 333 330 326 322 318 326 319
305 302 301 297 299 299 302 303 303 302 302 302 302 299 301 302 302 304 302 303 302 303 304 304 300 302 304 304 304 304 304 304 305 306 306 306 306 306 307 309 309 310 311 312 314 314 314 315 317 318 328 335 338 340 342 344 344 346 345 346 346 337 342 346 348 347 348 345 343 347 343 344 345 345 344 341 342 331 341 323 327 332 335 333 336 338 339 337 335 334 332 330 325 320 326 326 322
304 304 299 299 301 300 300 302 303 303 302 302 302 300 300 302 302 304 301 302 302 301 302 303 303 302 302 302 302 303 304 304 304 305 304 305 305 305 305 306 307 309 310 311 312 314 314 315 316 317 321 329 335 338 341 342 343 344 345 344 344 346 346 345 348 347 348 348 346 347 346 346 346 346 329 325 331 344 341 324 323 326 330 328 330 335 334 335 334 334 331 327 324 325 328 324 322
304 303 300 301 300 300 301 302 303 302 301 302 301 299 299 302 302 302 302 301 302 301 300 300 300 301 301 301 301 302 302 302 303 303 303 304 304 305 304 305 306 307 309 311 313 312 314 314 316 317 318 325 332 336 337 340 342 343 344 346 343 343 345 344 345 344 344 346 346 344 345 344 345 345 345 344 344 342 343 343 340 337 338 338 327 339 337 337 334 335 332 328 331 330 327 325 323
305 302 302 302 300 302 303 303 302 301 299 301 300 300 301 301 301 301 301 299 301 299 299 300 301 300 299 299 300 301 301 301 301 301 302 302 303 303 304 305 307 308 309 310 310 311 313 315 317 317 318 321 329 335 336 339 340 341 342 342 344 344 344 341 342 343 344 344 345 345 344 344 344 343 344 343 341 342 341 339 342 341 341 338 335 336 337 337 336 336 334 333 330 330 327 324 320
302 301 301 302 302 302 303 302 300 300 300 300 300 301 301 300 300 300 300 299 298 299 300 300 299 299 298 299 300 300 300 300 299 300 300 301 302 303 303 304 305 306 308 309 310 310 314 315 316 318 317 320 330 334 336 338 339 341 342 344 343 341 340 340 342 342 342 343 342 341 341 341 340 341 341 341 340 341 340 341 340 339 338 338 338 335 335 335 335 334 334 333 331 328 326 323 317
302 301 300 301 301 302 302 302 300 300 300 300 301 299 299 299 299 299 298 297 299 298 299 298 298 299 299 299 299 298 298 299 299 299 300 300 301 301 302 303 304 306 308 307 309 310 312 312 316 319 319 322 329 333 335 337 338 339 340 341 341 340 342 340 342 341 341 341 341 341 339 340 340 340 340 340 341 340 339 339 340 338 337 337 336 336 335 334 334 334 333 332 330 328 327 322 319
301 300 301 300 298 302 302 301 300 300 300 301 298 298 300 300 299 299 296 297 299 298 298 298 298 299 298 298 297 298 298 299 299 300 301 301 301 303 304 304 304 306 305 306 307 308 309 310 316 320 321 323 329 333 332 336 337 339 341 340 338 338 340 341 339 339 339 338 339 338 338 338 338 337 337 339 339 338 340 339 339 338 338 336 336 335 333 332 332 332 331 331 329 328 327 324 321
300 300 300 300 300 301 301 299 299 299 299 298 298 300 299 299 300 297 296 298 298 298 297 297 298 297 297 296 296 297 297 297 298 299 299 301 301 302 303 303 304 304 304 306 305 307 307 309 315 320 323 325 330 332 334 335 337 338 336 338 338 338 338 337 335 336 336 336 335 334 336 337 338 337 337 338 337 337 339 337 336 336 336 335 335 334 332 331 331 331 331 327 325 326 325 324 322
301 300 300 300 301 298 300 299 300 298 299 298 299 299 298 298 297 297 295 298 298 298 297 297 297 296 295 295 296 296 296 296 296 298 300 301 301 301 301 302 303 303 304 304 305 305 306 309 315 320 324 326 331 333 334 335 335 333 332 330 328 329 329 328 328 327 327 327 328 329 331 333 334 334 335 335 336 336 338 336 336 336 335 334 334 333 334 332 331 329 326 324 323 324 324 322 323
299 299 299 299 299 300 299 299 298 298 298 297 299 298 298 297 298 297 296 297 299 298 297 296 296 296 296 295 295 296 296 297 297 298 297 298 298 298 300 299 300 302 302 303 303 305 307 310 316 320 322 326 329 329 328 325 324 324 324 325 323 322 322 322 322 322 320 321 322 323 324 325 327 329 330 331 331 331 332 332 332 328 328 332 332 332 331 330 328 326 323 322 322 323 323 321 319
298 298 299 301 301 301 299 298 298 297 298 296 299 297 296 297 295 295 297 298 298 298 296 296 295 295 295 295 295 296 296 296 297 297 296 297 298 298 298 299 299 300 303 302 303 305 306 309 316 319 321 322 322 321 321 321 320 319 318 318 318 319 319 318 318 317 318 319 320 321 321 322 324 326 326 325 325 325 325 325 325 323 323 324 325 325 326 325 324 323 322 321 321 320 320 318 317
297 299 298 299 300 300 298 299 298 298 298 295 297 295 297 295 296 297 297 298 298 298 297 296 295 295 294 295 295 296 296 296 296 296 296 296 297 298 298 299 299 299 300 302 304 304 305 308 314 318 319 318 317 318 318 317 315 315 315 316 315 315 314 314 314 314 314 315 316 317 319 320 321 322 324 324 323 322 321 321 320 320 322 322 321 321 321 320 320 320 318 321 316 316 317 319 318
299 297 297 297 296 297 298 298 298 299 297 296 299 296 297 295 296 298 297 296 297 298 296 295 294 294 294 294 295 295 295 295 295 295 296 296 296 298 298 299 299 299 301 302 302 303 305 308 313 315 315 315 314 313 313 312 313 312 311 311 311 311 310 310 310 311 311 311 312 314 315 317 318 319 321 320 319 319 318 317 317 318 320 321 319 319 319 318 317 315 315 316 316 315 315 316 315
298 296 296 296 295 298 298 297 297 298 297 298 299 296 299 296 296 297 296 297 298 297 295 294 293 294 293 294 294 295 295 295 295 295 295 296 296 296 297 298 298 299 300 300 301 304 305 307 310 313 313 312 311 311 311 310 309 308 307 306 307 308 307 307 307 307 307 308 309 309 310 313 315 315 316 317 316 317 317 316 316 317 317 317 317 317 317 316 315 314 314 315 314 314 315 316 314
296 296 296 296 295 297 297 297 297 297 296 299 298 297 296 296 296 296 296 296 296 296 294 294 293 292 293 293 294 294 295 296 296 295 295 295 296 296 296 296 297 297 298 299 300 304 305 306 308 310 311 310 309 307 307 306 306 305 304 303 303 303 303 304 304 305 305 304 304 305 306 308 311 312 312 313 313 315 315 314 315 316 317 316 316 315 314 313 314 314 312 313 315 314 314 313 311
296 296 295 298 294 296 295 297 298 299 297 297 299 296 298 296 296 296 295 295 296 295 293 293 293 293 293 293 293 294 294 295 294 294 293 294 295 295 296 296 297 297 298 299 301 302 304 305 306 307 309 308 307 306 305 305 304 304 303 302 302 301 301 301 302 303 302 302 303 302 304 305 307 309 310 310 310 310 311 311 311 312 313 314 314 313 313 313 312 312 310 309 309 312 310 309 308
297 294 294 294 293 293 295 295 297 297 298 298 297 297 299 296 296 294 294 294 295 294 294 293 292 292 293 293 293 293 293 293 292 293 293 294 294 295 295 296 297 297 298 298 300 302 304 304 305 306 307 308 308 307 305 304 304 303 302 302 301 301 300 300 300 300 300 301 301 302 303 303 304 307 309 309 308 308 309 308 308 309 308 308 307 308 309 310 310 310 311 309 306 304 304 304 303
297 297 296 296 294 296 294 297 297 296 297 297 297 297 299 299 294 294 294 294 294 293 293 292 292 292 292 292 293 293 293 292 292 293 293 294 294 294 295 295 296 297 297 298 299 300 302 304 305 305 306 307 308 308 307 306 305 304 302 302 300 299 298 298 299 299 299 299 300 301 302 302 303 304 306 307 307 307 308 308 308 308 307 307 305 305 306 305 305 307 307 308 309 307 306 305 305
296 297 295 295 295 296 296 295 296 295 296 296 298 298 298 300 298 295 293 293 293 293 293 293 292 292 292 292 292 292 292 291 293 293 293 293 293 294 295 295 296 297 296 297 298 298 299 301 303 302 303 305 307 307 307 306 304 302 300 299 297 298 297 297 296 297 297 298 298 299 300 300 301 301 302 303 304 304 305 305 306 306 306 305 304 304 305 305 305 306 307 305 306 305 303 303 304
296 296 295 294 295 294 297 295 295 296 294 296 295 295 296 299 296 294 293 293 293 293 293 292 292 292 292 292 292 292 291 293 293 293 292 293 293 294 294 294 294 295 295 296 296 297 298 300 300 301 303 303 303 304 303 301 301 300 298 296 296 295 295 294 294 294 294 295 295 296 297 298 299 299 300 301 301 302 302 302 302 303 304 303 303 303 303 302 304 305 305 306 307 304 303 303 303
295 295 295 293 295 296 296 294 294 295 294 295 295 294 296 298 294 292 292 293 293 292 293 292 292 292 292 292 292 292 292 292 292 292 292 292 293 293 293 293 293 294 294 294 296 297 297 298 299 300 301 301 301 301 301 300 300 299 297 295 294 292 293 293 292 292 293 293 293 294 294 295 296 296 297 298 298 299 300 300 300 301 301 302 301 301 301 301 301 302 302 302 304 305 304 304 303
294 294 292 292 296 293 294 294 293 293 294 295 294 293 296 296 292 291 291 291 290 291 290 291 292 292 292 292 292 292 292 292 291 291 291 291 292 292 293 293 293 294 294 294 294 295 296 297 297 298 299 299 299 298 297 297 297 296 296 294 294 293 291 292 292 292 292 292 291 292 293 293 293 294 294 295 295 295 296 297 297 298 299 300 300 299 299 299 300 300 301 300 301 301 301 301 302
295 295 294 294 294 294 295 295 293 292 293 291 293 293 294 298 294 291 290 290 289 290 290 290 291 292 292 292 291 292 292 292 291 291 291 291 292 291 291 291 293 292 292 292 293 293 294 295 296 297 297 298 298 298 297 297 295 294 294 294 294 293 293 292 291 290 291 291 291 291 292 293 293 293 293 294 294 294 294 294 294 294 295 296 296 295 295 295 297 298 299 299 299 299 299 299 300
295 295 295 296 296 295 294 293 293 294 293 293 293 289 292 295 294 294 290 290 289 289 289 290 290 291 291 290 291 291 291 291 292 291 291 291 291 291 291 291 292 291 291 291 291 292 294 295 296 296 297 297 297 297 298 299 297 295 294 293 291 290 289 289 288 289 289 290 290 292 292 292 293 293 293 293 293 293 293 294 294 293 293 293 294 293 293 293 294 294 296 297 297 298 299 297 297
293 295 297 296 295 295 295 293 293 290 289 292 291 289 289 295 294 292 290 290 289 289 289 290 290 291 291 291 292 291 291 290 290 290 290 290 290 291 290 290 291 290 290 291 291 291 292 293 294 295 295 295 296 296 296 295 294 294 293 292 291 289 288 289 290 291 290 291 292 291 291 292 292 292 292 292 293 293 293 293 293 293 293 293 293 293 293 293 293 293 294 294 294 295 296 294 294
293 294 292 296 295 293 294 294 293 293 293 292 289 292 287 288 294 290 290 290 289 289 289 290 290 291 291 291 291 291 291 291 291 290 290 290 290 290 289 289 289 289 290 290 291 291 291 292 292 293 293 293 294 294 294 294 293 292 292 291 290 290 289 289 290 290 291 291 291 291 291 291 292 292 292 292 292 292 292 292 292 292 292 292 292 292 292 292 293 293 293 293 293 293 293 292 291
295 291 294 294 295 295 295 294 292 292 290 289 289 292 286 287 292 288 290 289 289 289 290 290 290 291 291 292 291 292 291 291 290 290 290 289 289 289 289 289 289 289 289 290 290 290 291 291 291 291 291 291 292 292 292 293 292 292 291 291 289 290 290 290 290 291 291 291 290 291 291 291 291 291 291 291 291 291 291 291 291 291 290 290 290 291 291 291 291 291 291 291 291 291 291 292 291
292 292 293 293 293 293 294 292 292 290 288 285 290 291 286 288 294 291 289 289 291 291 291 291 291 291 292 291 292 291 291 290 290 290 289 289 289 289 288 288 288 288 289 289 289 290 290 290 290 290 289 290 290 291 291 291 292 292 291 290 290 289 290 290 291 290 290 291 290 290 290 290 290 290 290 290 290 290 290 290 290 290 290 289 289 290 290 290 290 290 291 291 291 290 291 290 290
293 295 294 293 292 291 291 291 290 288 283 286 292 291 290 285 292 293 291 293 294 293 292 292 292 292 292 292 292 291 290 290 290 289 289 289 288 288 288 288 288 288 288 289 289 289 290 290 289 288 288 289 290 290 291 291 291 291 291 291 290 290 290 290 290 290 290 290 289 289 289 289 290 289 289 289 289 290 289 289 289 289 289 289 288 288 288 289 289 289 290 290 289 289 289 291 291
295 294 293 293 290 291 290 288 289 284 284 286 285 288 290 283 289 295 297 291 294 294 292 291 291 291 291 292 292 291 291 290 289 289 288 288 287 287 287 287 287 287 288 288 288 289 289 289 289 288 288 288 289 289 290 290 290 291 291 291 291 291 291 290 290 289 289 289 289 289 289 289 289 289 289 288 288 289 289 288 289 288 288 288 288 288 288 288 288 289 288 288 288 288 289 289 289
294 294 293 289 286 285 283 285 281 282 284 284 285 286 285 285 293 296 294 294 293 295 295 293 292 291 292 292 292 291 291 290 289 289 288 288 288 287 287 287 287 287 287 287 287 288 288 288 288 287 287 288 288 289 289 289 290 290 290 290 290 291 290 290 290 289 290 289 289 289 289 288 288 288 288 287 287 288 288 287 287 287 287 287 287 287 287 288 288 288 287 288 288 287 287 287 287
291 291 289 287 283 281 279 282 282 282 285 284 285 288 284 291 293 296 296 294 293 292 293 295 294 293 292 292 292 291 290 289 289 289 288 288 288 288 287 287 287 287 287 287 287 287 288 288 288 287 287 288 288 289 289 289 289 289 290 290 290 290 289 290 289 289 289 289 289 288 288 288 287 287 287 286 287 287 287 287 287 287 287 287 287 287 287 287 287 287 287 286 287 287 286 287 287
291 296 293 290 289 283 279 282 280 283 284 282 285 284 285 285 291 287 289 287 289 289 289 292 294 294 294 293 292 291 290 289 289 289 288 288 288 288 287 287 287 287 286 287 287 287 287 287 287 286 286 287 288 288 288 288 288 288 289 289 289 289 289 289 289 289 289 288 288 288 287 287 287 286 286 286 286 286 286 286 286 285 285 286 286 286 286 286 286 286 286 286 286 286 285 286 285
292 293 294 289 288 291 286 284 284 282 283 281 280 284 290 291 288 289 287 288 288 288 289 289 291 292 293 291 290 290 289 289 289 288 288 288 288 288 287 287 287 287 286 287 286 287 287 287 287 287 286 287 287 288 288 288 288 288 288 288 288 288 288 288 288 288 287 287 287 287 286 286 287 286 286 286 286 286 285 285 285 285 285 285 285 284 284 285 285 285 285 285 285 286 284 285 285
290 290 287 291 294 292 282 280 279 279 282 282 287 286 289 292 290 287 288 287 288 287 288 288 290 291 291 290 291 290 289 289 289 288 288 288 288 288 288 287 287 287 286 286 286 287 287 287 287 286 286 287 287 287 287 287 287 287 287 287 287 288 288 287 286 286 286 287 287 287 286 286 286 286 286 286 285 285 285 285 285 284 284 284 284 284 284 284 284 284 283 283 283 284 284 284 284
290 286 291 291 294 294 289 284 282 282 281 283 284 284 287 286 286 288 288 287 288 288 287 288 289 290 289 290 290 290 290 290 289 289 289 289 288 287 288 288 287 287 286 286 286 287 287 288 287 286 286 286 287 287 287 287 287 287 287 287 287 287 287 287 286 286 287 286 286 286 286 285 285 285 285 285 285 284 284 284 284 283 283 283 283 283 283 283 283 283 283 283 283 283 283 283 283
292 292 299 291 286 284 289 286 279 279 278 282 283 285 286 289 290 287 288 288 290 289 289 287 288 288 289 290 291 291 291 290 289 288 288 288 288 288 287 287 287 287 287 286 286 287 287 287 287 287 287 287 287 287 287 288 288 288 287 287 287 287 287 286 286 287 287 286 285 285 285 284 284 284 284 284 284 284 283 283 283 283 283 283 283 282 282 282 282 282 282 282 283 282 282 282 283
292 293 292 293 291 289 285 287 286 286 283 280 282 280 283 289 292 292 293 292 293 291 288 288 289 289 290 291 291 291 290 289 289 288 288 288 288 288 287 287 286 286 286 287 286 287 286 287 287 287 287 287 287 287 287 287 287 287 287 287 287 286 286 286 286 286 285 285 285 284 284 283 283 283 283 283 283 282 282 282 282 282 281 282 281 281 281 281 281 281 281 281 281 281 280 281 281
287 290 289 290 289 290 291 289 286 286 283 282 282 281 286 291 295 295 295 295 294 292 290 290 290 291 291 292 292 292 291 290 289 289 288 288 288 288 288 288 287 287 287 287 287 286 286 287 287 287 286 286 286 287 287 287 287 286 286 286 285 286 285 286 285 285 284 284 283 283 283 283 282 282 282 282 281 281 281 281 281 281 280 280 280 280 280 280 280 280 280 280 280 280 279 279 280
291 290 288 290 287 285 283 283 287 284 285 282 281 280 287 292 288 293 294 294 295 294 293 292 292 291 291 292 293 292 291 290 290 289 289 289 288 288 288 288 287 286 286 286 287 287 287 286 287 287 287 287 286 286 287 286 286 286 286 285 285 285 285 285 284 284 283 282 282 282 282 281 281 281 281 280 280 280 279 279 279 279 279 279 279 279 279 278 278 278 278 279 279 278 278 278 278
Wind_Speed
5 4 2 2 1 2 3 2 3 2 2 4 4 1 5 2 2 3 2 3 2 3 2 2 2 3 3 4 6 4 4 5 5 6 5 3 2 3 1 2 0 1 5 8 9 11 10 7 6 8 9 9 13 12 12 13 13 13 13 13 13 12 11 10 8 8 8 8 8 8 9 9 8 8 8 8 8 8 8 7 8 8 9 10 11 12 12 13 13 13 13 13 13 12 12 13 13
3 3 1 2 1 2 2 2 1 4 3 5 5 2 4 1 3 2 5 5 4 2 2 3 1 2 3 4 4 3 2 3 6 5 1 3 2 3 4 3 0 1 5 8 9 12 11 11 5 7 10 10 12 13 13 12 12 12 12 12 12 12 11 11 9 9 9 8 8 8 8 8 8 8 8 7 7 7 7 7 7 8 9 10 11 11 11 11 12 13 12 12 12 11 11 12 11
3 4 1 1 1 2 3 2 2 3 4 5 4 4 1 2 3 3 4 3 4 3 3 2 1 3 3 5 3 4 6 1 2 1 2 2 3 5 7 2 2 2 5 6 9 11 10 11 6 7 10 11 12 12 13 12 13 12 11 11 11 12 11 10 10 9 9 9 9 8 8 8 8 8 8 7 6 6 7 7 7 8 8 9 10 10 10 11 11 12 11 11 11 11 11 11 10
1 2 3 1 1 2 2 1 3 2 4 4 5 3 1 3 4 4 3 4 4 3 1 3 2 3 4 2 4 3 5 4 3 5 1 5 5 8 6 1 1 2 4 5 7 10 10 10 6 6 8 10 12 12 12 12 13 12 11 10 10 10 10 10 9 8 8 9 9 8 8 8 7 7 7 7 6 6 6 7 7 7 8 9 9 9 9 10 11 10 10 10 11 10 10 10 9
1 1 3 1 3 2 1 2 2 1 5 2 6 3 1 1 3 4 4 3 2 2 2 2 2 2 2 3 2 3 6 1 4 2 3 3 4 7 4 1 1 2 5 7 7 9 9 10 6 6 8 9 12 12 12 11 12 12 11 10 10 10 9 9 9 8 7 8 8 8 8 7 7 7 7 6 6 5 6 6 7 7 8 8 9 9 8 8 9 9 10 10 10 10 9 9 9
1 2 2 2 1 2 2 4 4 4 6 2 6 5 2 2 2 4 4 2 2 2 2 2 4 2 2 2 2 3 6 3 6 3 6 5 9 7 2 0 2 2 6 7 7 8 8 8 5 5 7 9 13 13 12 12 12 12 11 11 10 10 10 9 9 8 8 8 8 8 8 7 7 6 6 6 6 5 5 5 6 7 8 7 7 7 6 7 7 8 9 9 10 10 9 9 9
3 2 0 2 4 2 1 3 5 6 4 4 4 4 3 3 2 4 1 3 1 1 0 2 1 3 3 2 2 1 4 3 4 4 5 9 7 6 3 2 2 1 4 5 6 6 8 9 4 5 6 6 10 11 12 12 12 11 11 11 11 11 10 10 9 9 8 8 8 8 7 7 7 6 6 6 6 5 5 5 6 7 7 7 7 6 5 6 5 6 9 9 10 9 9 8 7
2 3 2 2 3 2 3 4 5 1 4 2 3 3 3 3 2 2 2 3 4 1 3 1 2 3 5 2 2 3 4 4 4 6 7 7 6 5 3 5 3 2 2 2 3 4 6 4 3 4 3 4 7 8 11 11 12 11 11 11 11 10 10 10 10 9 9 9 9 9 7 8 7 6 6 5 6 5 5 5 5 7 8 8 7 5 5 6 9 9 9 9 8 8 8 7 7
2 1 1 2 2 2 3 3 4 2 1 2 1 4 5 3 3 3 2 1 1 1 2 2 2 3 4 0 4 3 5 10 5 5 9 8 7 6 3 6 5 4 2 1 1 2 5 4 1 1 1 3 5 8 9 11 11 11 11 11 10 10 10 10 10 9 9 7 7 8 7 7 7 7 7 7 6 6 6 5 6 6 7 7 7 8 8 9 7 7 8 8 8 8 7 7 7
2 3 2 2 1 3 3 4 4 3 2 2 3 2 3 0 1 3 3 2 4 3 3 2 2 5 1 4 6 5 6 9 5 5 11 9 7 5 4 5 5 4 2 1 2 3 3 5 1 2 1 0 2 5 7 7 9 10 10 10 10 10 9 9 9 8 9 9 8 7 7 7 7 6 7 7 7 7 6 6 6 7 6 6 7 7 8 8 9 8 8 8 8 8 7 7 7
0 3 2 3 2 5 5 5 2 4 2 1 1 2 3 2 3 1 1 2 1 3 2 2 3 2 2 4 5 2 1 9 14 13 11 8 5 5 4 4 4 4 2 0 2 2 3 5 2 2 2 1 1 4 6 6 7 8 9 8 10 9 9 8 9 9 7 8 8 7 7 7 6 7 7 7 8 7 7 7 7 7 6 5 5 7 8 7 8 9 8 8 8 7 7 7 6
1 1 1 2 3 3 3 4 4 4 4 2 5 2 1 3 3 1 2 1 2 0 2 2 3 3 1 3 5 3 6 14 11 8 9 5 4 3 4 4 5 5 4 2 1 2 2 3 5 3 2 3 2 2 5 7 7 7 7 7 7 8 8 8 7 7 6 5 7 7 7 6 5 7 5 4 2 5 6 7 7 6 5 5 5 6 7 8 9 9 8 8 7 7 7 6 6
2 1 1 3 1 1 3 3 4 3 5 3 3 2 1 3 2 3 1 2 1 2 4 3 2 2 1 0 3 2 9 14 12 10 6 5 4 4 4 6 6 7 6 3 2 1 1 2 4 5 4 1 3 3 3 4 7 6 6 6 6 6 6 7 6 6 5 5 5 5 5 2 3 4 7 7 7 5 7 6 5 6 5 5 6 5 7 8 9 9 8 8 7 7 7 7 6
1 1 1 2 1 1 3 3 3 6 4 5 2 3 2 2 2 3 2 2 2 3 3 1 2 2 1 3 5 1 7 12 14 11 5 4 4 6 8 6 8 7 7 7 5 3 2 2 3 4 5 6 8 5 2 3 5 8 7 7 6 6 7 6 5 6 5 5 4 4 3 4 4 5 4 4 4 3 3 4 4 5 5 4 5 6 9 9 9 9 8 8 7 7 7 7 7
1 1 3 4 3 2 1 4 6 6 5 3 2 4 1 2 0 2 2 4 3 3 1 2 3 4 3 5 2 5 11 13 12 10 4 4 5 6 7 6 6 7 7 7 6 6 5 3 2 3 4 6 9 9 9 6 3 6 8 7 6 5 6 7 6 6 5 4 3 2 2 3 4 3 6 5 7 3 4 2 3 3 5 3 5 9 10 10 10 9 9 8 7 7 7 7 6
2 2 1 3 3 3 4 2 1 4 5 2 2 3 3 3 3 2 1 4 5 2 3 1 2 4 4 3 5 8 11 11 10 7 2 5 4 4 6 7 5 6 6 7 6 6 5 4 3 2 3 5 7 8 8 9 5 4 4 4 6 8 5 4 6 6 5 5 3 3 3 2 2 4 6 6 6 5 4 7 5 3 6 4 6 9 10 10 11 10 9 9 8 7 7 6 7
0 2 2 2 4 4 4 3 6 5 6 3 1 1 2 2 2 1 1 2 6 2 4 3 3 3 6 4 4 6 8 8 8 4 6 6 4 4 4 6 5 5 4 6 7 6 6 4 4 3 3 4 6 7 7 8 6 4 4 6 8 7 7 7 5 2 2 3 4 6 5 3 5 4 5 4 6 6 5 3 5 5 6 7 8 10 10 11 12 11 9 9 8 7 6 6 6
3 0 1 2 3 2 6 4 4 3 3 4 3 1 1 2 2 2 3 3 3 6 4 6 10 11 8 4 3 4 6 9 10 9 9 6 5 5 5 6 6 6 6 5 5 7 6 5 5 4 3 4 5 5 5 5 6 5 9 8 7 8 7 5 6 5 3 3 0 4 6 5 4 4 5 3 4 5 5 6 5 6 5 5 9 9 10 11 12 11 9 10 8 7 3 1 3
1 2 2 2 2 3 2 2 4 3 3 2 1 2 3 1 3 3 6 2 1 3 4 5 8 8 8 8 8 8 9 10 11 11 11 12 9 9 6 5 6 6 6 6 5 7 6 5 6 5 5 4 5 6 5 6 6 7 9 8 6 5 9 9 8 6 6 5 6 4 4 4 4 4 3 3 3 1 3 7 7 6 6 4 7 8 9 11 11 11 9 9 9 7 2 1 2
2 3 2 2 3 3 2 2 4 2 1 1 1 2 3 1 2 2 4 9 4 1 1 3 4 2 8 7 8 8 8 9 10 11 11 11 9 8 7 7 7 7 6 6 6 5 7 6 6 5 5 5 4 4 5 5 5 5 6 6 6 4 4 5 7 6 5 6 5 5 5 5 5 5 6 5 2 3 2 3 3 4 8 6 7 6 8 9 11 11 8 9 7 2 1 1 1
2 2 2 4 4 3 5 6 2 2 2 1 1 2 3 2 2 2 3 7 3 4 7 5 4 4 4 5 7 7 9 10 11 11 10 10 9 6 6 6 6 6 6 6 5 6 8 8 6 5 5 4 4 4 4 5 4 4 5 5 6 6 3 1 2 5 4 5 7 6 6 6 6 6 6 5 5 4 4 4 4 3 5 6 8 6 6 6 6 5 5 4 1 2 2 1 0
2 3 4 5 3 2 6 4 2 2 1 3 2 4 1 2 2 4 4 4 3 4 6 6 6 5 5 5 6 7 9 10 11 11 10 9 10 8 7 6 6 5 6 6 8 7 9 8 7 6 5 3 3 3 4 3 4 4 4 4 5 5 5 4 4 4 3 2 3 6 6 6 6 6 6 6 6 5 5 4 3 4 4 3 4 5 5 5 5 4 3 2 1 1 1 1 0
1 3 0 1 1 3 3 4 4 5 4 4 4 1 1 3 1 0 4 3 4 3 4 5 5 4 3 4 5 8 9 9 9 9 9 9 9 9 8 7 7 7 6 7 7 7 8 9 8 6 4 2 4 4 3 3 4 4 4 2 4 4 3 4 3 3 3 1 3 3 4 5 6 6 6 6 6 5 4 3 3 3 5 4 4 6 6 6 5 4 4 1 1 2 2 2 2
3 1 2 3 3 4 3 2 4 5 4 4 1 2 5 4 4 2 3 4 5 5 5 5 5 5 4 6 9 8 8 7 7 6 6 6 7 8 7 7 7 6 6 8 7 7 7 9 8 6 2 2 4 5 5 4 4 3 2 4 4 3 1 2 4 5 3 2 2 2 4 5 5 6 4 5 5 5 5 4 5 5 5 5 4 2 1 2 5 5 3 2 3 2 3 2 2
1 1 3 2 1 5 2 3 5 5 7 4 2 4 3 3 0 5 3 4 4 4 3 4 4 6 7 9 9 8 7 7 7 6 5 5 5 5 6 5 6 6 7 8 7 7 8 8 8 6 3 3 4 5 5 4 3 3 1 3 2 2 2 1 3 3 4 3 4 3 3 3 2 3 4 5 6 6 5 5 5 6 5 3 3 3 4 3 3 4 3 3 3 3 2 2 2
1 2 1 2 3 3 4 5 8 7 2 3 4 4 1 3 4 5 4 4 4 3 4 4 5 8 8 8 8 7 7 8 7 7 7 5 5 7 8 8 7 8 8 8 8 7 8 9 8 7 4 2 5 6 5 4 3 2 5 3 4 6 7 6 8 6 6 6 6 6 4 4 3 4 2 3 3 5 3 4 4 3 2 1 2 3 3 4 5 5 2 1 0 2 2 1 1
0 0 2 4 3 4 2 3 1 1 4 4 4 2 4 3 3 3 3 5 5 4 5 5 5 7 6 5 5 4 5 6 6 5 5 6 6 8 9 8 9 9 8 9 8 7 7 8 8 7 4 1 4 7 6 6 7 8 8 9 9 8 8 8 9 8 7 8 8 9 8 8 7 6 5 4 3 2 4 3 4 2 2 1 2 4 1 1 1 1 0 1 1 2 2 1 2
2 3 5 6 4 5 3 4 2 1 3 4 5 3 3 2 2 3 3 5 3 4 5 4 5 5 5 5 4 4 4 5 5 6 9 9 7 7 9 8 9 9 8 9 7 8 7 8 7 8 7 8 8 9 8 10 9 9 9 9 9 8 9 8 9 8 8 7 8 8 8 7 6 6 7 5 5 5 6 6 6 6 6 5 3 4 3 2 1 0 1 1 2 2 2 1 1
1 2 6 4 5 5 3 3 2 3 2 2 2 5 5 4 5 3 4 3 4 4 4 4 5 5 4 4 4 4 5 5 6 7 7 6 6 6 7 8 8 8 6 7 8 8 8 8 7 9 9 10 11 11 10 10 10 10 10 9 8 8 9 9 10 9 7 7 9 9 9 8 7 6 6 7 7 6 6 6 5 5 4 4 4 5 4 3 3 2 3 4 3 3 3 1 1
1 2 3 9 4 4 2 1 1 4 2 2 3 6 6 5 6 3 0 4 5 3 3 4 3 3 3 3 3 4 5 5 7 7 6 6 6 6 7 8 8 6 6 6 8 8 7 5 4 8 10 12 12 11 11 10 9 8 8 8 8 10 9 9 9 8 8 8 8 10 10 11 8 7 8 9 7 6 7 8 6 5 5 5 6 6 5 4 4 5 4 2 3 3 4 3 3
3 1 2 4 4 1 2 3 4 2 2 2 4 6 3 7 5 4 3 4 7 1 3 2 2 2 2 2 2 3 4 5 6 6 7 7 7 6 7 7 7 7 5 6 7 7 8 7 5 8 8 10 10 10 10 10 9 10 8 7 8 9 8 9 8 8 8 7 8 9 11 11 10 9 9 8 8 7 7 7 8 7 6 5 6 6 5 5 5 5 3 4 3 2 2 3 4
1 3 4 2 4 2 2 4 3 3 3 1 4 7 2 9 4 5 3 0 5 4 3 2 2 2 2 2 2 2 3 4 5 6 7 7 7 6 7 8 8 7 7 6 6 6 8 8 7 9 10 12 11 10 10 10 10 10 10 9 9 9 8 9 8 7 7 7 8 9 10 10 9 11 10 9 8 8 8 9 8 6 6 6 6 6 6 6 4 3 2 2 1 1 1 2 1
1 4 5 4 1 3 4 3 1 2 2 1 4 4 5 6 4 3 3 1 3 4 4 3 2 1 1 2 2 2 2 3 4 6 8 7 6 7 7 7 7 8 7 7 7 6 8 8 8 10 10 11 11 12 12 12 11 11 11 10 10 10 9 8 7 7 8 8 8 8 8 8 9 10 10 9 7 8 8 8 7 7 6 6 5 6 6 6 4 3 3 3 2 1 2 2 2
5 1 5 1 4 1 4 3 3 2 2 4 1 5 4 6 5 1 2 1 3 4 4 3 2 1 1 1 1 2 2 3 5 6 8 8 6 8 6 7 7 7 6 7 7 6 7 7 7 7 8 10 9 9 10 9 10 10 10 9 10 10 10 8 8 7 8 8 7 8 8 8 8 10 10 8 7 8 8 8 8 8 6 5 6 6 6 4 5 4 5 5 5 4 4 5 4
3 5 4 5 4 7 7 3 3 2 2 5 2 6 10 7 6 2 2 1 3 4 3 3 3 2 2 2 2 3 3 4 5 5 7 7 7 7 6 6 6 6 5 7 7 6 6 6 6 6 7 8 9 10 11 11 12 11 10 10 11 10 9 9 8 8 8 7 8 8 8 8 8 9 9 8 7 7 8 8 7 8 7 7 7 8 8 8 7 6 6 5 5 5 4 3 3
3 5 5 3 5 5 5 3 2 2 6 7 7 9 10 6 8 5 3 2 3 4 4 4 4 3 3 3 3 2 3 4 3 4 5 5 5 6 5 5 5 5 6 6 7 7 7 6 6 6 6 6 6 7 7 7 7 7 9 9 11 10 9 9 10 9 9 9 9 9 10 9 9 9 9 8 8 8 7 7 7 7 7 8 8 8 7 7 8 7 8 6 5 4 4 3 3
5 2 2 6 7 10 1 1 3 1 3 10 12 12 12 14 5 5 5 4 4 5 5 4 4 4 4 3 3 3 3 3 2 2 4 4 5 5 4 4 4 6 7 8 8 9 9 7 6 7 6 5 4 5 6 6 7 8 9 10 10 9 9 9 10 10 10 10 11 11 11 10 10 11 11 10 9 9 9 8 8 9 8 8 8 8 8 8 7 6 4 4 5 5 6 6 6
4 4 5 6 5 10 2 1 3 1 4 3 2 7 11 12 3 3 4 5 6 6 6 5 5 4 4 5 5 4 4 4 3 3 4 4 4 4 4 4 5 6 8 8 9 8 8 8 8 6 5 6 7 7 7 8 8 8 9 8 8 8 8 9 10 9 9 9 11 11 11 11 11 11 11 10 11 10 10 9 10 10 9 9 9 9 10 9 10 8 6 3 5 5 6 7 7
3 6 4 5 8 5 5 2 2 2 3 9 2 8 11 7 3 3 3 4 2 2 3 3 5 5 5 5 5 5 5 5 4 4 3 4 4 4 4 4 5 5 6 8 7 8 8 8 8 7 7 7 8 7 8 8 8 9 10 9 10 10 10 9 10 10 10 11 11 12 11 11 11 11 11 11 9 10 10 10 9 9 10 9 9 10 10 11 10 10 10 8 5 5 5 7 9
6 5 5 9 1 2 5 3 2 3 4 2 2 6 10 2 2 3 2 2 1 1 2 1 2 3 4 5 4 5 6 6 5 4 4 4 4 4 4 4 4 4 6 7 6 7 6 7 7 7 8 8 8 9 10 11 12 12 12 12 12 11 10 10 11 11 11 12 13 12 11 11 12 11 12 11 10 10 11 10 9 9 9 9 9 9 10 10 10 9 9 10 8 6 6 7 8
7 8 9 10 5 8 9 2 1 2 4 1 5 9 12 11 9 5 4 2 1 1 1 1 1 2 2 2 0 0 4 4 5 4 4 4 5 5 5 5 4 6 7 6 6 5 4 6 7 8 8 8 7 8 9 9 11 12 11 12 11 12 10 10 10 11 10 11 11 11 10 11 11 11 11 12 10 11 11 10 10 9 10 10 9 9 10 10 10 9 10 9 10 7 7 6 7
5 10 13 12 8 9 4 1 2 5 5 5 3 6 6 2 4 3 5 3 3 2 3 4 4 3 3 4 4 2 0 1 2 3 3 4 5 5 5 6 7 7 7 6 5 5 5 5 6 8 7 6 6 5 3 3 6 8 9 9 10 9 10 9 10 9 9 9 10 8 10 11 11 11 11 11 11 10 11 11 10 10 10 9 9 9 9 9 11 11 10 9 10 10 6 7 7
5 4 10 14 12 6 4 5 4 5 6 2 2 8 5 3 2 5 5 4 4 4 5 6 6 6 6 6 6 6 5 4 2 2 3 4 4 5 5 6 6 6 5 4 4 5 6 6 7 7 6 6 5 5 5 5 7 8 10 10 10 10 12 9 8 8 8 8 8 9 9 10 10 11 11 11 11 11 10 10 10 10 10 9 9 9 10 10 9 10 9 9 9 8 9 8 9
7 2 1 5 6 8 9 8 9 4 4 2 2 4 7 7 1 4 4 5 5 6 8 8 8 9 9 8 7 6 6 5 5 4 3 3 3 4 5 4 5 5 4 4 5 5 6 7 7 7 6 6 5 5 5 5 8 8 10 11 10 10 11 11 10 9 8 8 9 9 8 9 10 10 10 10 10 10 9 10 10 9 9 9 9 9 9 9 8 8 9 9 8 8 9 8 8
1 2 1 4 6 6 6 6 6 2 3 6 6 4 4 7 4 4 5 5 8 11 11 12 12 11 11 10 8 7 6 5 5 5 4 4 4 3 3 4 4 4 4 4 4 4 5 7 8 9 9 8 7 7 7 7 8 8 9 10 12 10 10 10 8 8 8 8 10 8 8 8 9 10 10 10 10 10 9 9 9 9 9 9 8 8 8 8 9 9 9 9 9 8 8 7 7
2 4 8 6 6 5 3 4 4 2 4 9 9 10 7 9 6 5 4 6 11 12 14 14 14 15 13 11 10 9 6 5 4 3 3 3 2 2 2 2 4 4 3 4 4 4 5 6 8 10 10 7 7 8 8 9 8 8 10 11 14 10 9 9 8 8 8 8 9 9 8 7 7 8 9 10 9 10 9 9 9 9 9 8 7 7 7 8 8 7 8 8 8 8 6 7 7
10 6 9 7 6 5 3 2 1 1 7 10 7 12 9 7 7 9 7 8 5 8 9 9 12 12 12 11 11 10 8 7 6 5 4 3 2 2 1 3 4 4 3 4 4 5 5 6 8 11 9 7 7 8 8 9 8 8 9 10 12 12 10 10 9 9 8 8 8 8 7 7 7 7 7 8 9 8 8 8 8 8 7 7 7 8 7 7 6 7 6 7 8 8 6 6 6
5 3 5 6 3 3 2 1 2 5 7 3 5 2 6 10 3 8 4 5 4 11 15 17 17 17 15 13 11 10 9 8 7 6 6 5 4 3 3 4 4 4 4 4 4 4 5 6 8 11 9 8 7 8 8 8 8 8 9 10 11 10 9 9 10 10 9 9 7 7 6 6 7 7 7 7 8 8 7 7 7 7 7 7 7 6 6 6 6 6 6 6 6 7 7 6 6
3 5 7 7 3 1 5 3 5 10 7 2 3 2 3 16 8 4 2 4 4 6 7 16 18 18 16 13 12 10 8 8 7 7 6 6 6 6 6 5 5 5 5 5 5 4 5 7 8 11 10 7 7 7 8 8 8 8 8 9 9 8 9 10 9 9 8 7 6 6 6 6 6 6 7 7 7 8 7 7 7 7 6 6 7 6 6 7 6 5 6 6 5 6 6 6 5
6 10 9 7 5 5 5 4 2 4 1 1 2 2 8 4 7 11 7 4 3 2 2 4 16 18 17 14 12 10 8 9 8 7 6 7 6 6 6 6 5 5 5 5 5 5 5 6 7 11 10 7 7 7 8 9 8 7 7 8 8 8 9 9 8 8 7 6 6 6 6 6 6 6 6 7 6 6 6 6 6 6 6 6 6 6 6 6 6 5 5 6 6 5 5 6 5
11 2 10 6 6 4 5 5 6 3 1 3 2 3 4 5 3 3 2 2 2 3 2 1 8 12 13 11 9 9 10 9 7 7 7 7 7 7 6 6 6 5 6 5 5 5 5 7 8 10 11 8 7 7 8 9 8 8 7 7 7 7 8 7 7 7 7 7 6 6 6 5 5 5 5 4 4 5 5 5 6 5 6 6 6 6 5 5 6 4 4 5 4 5 5 5 5
3 1 3 0 7 0 4 1 1 1 1 3 4 6 1 4 3 1 1 1 1 2 2 3 8 8 9 9 12 11 10 10 8 8 8 8 7 7 6 6 6 6 6 5 6 6 6 7 8 9 10 9 8 8 8 8 8 7 8 8 8 8 7 7 7 6 6 6 6 6 5 5 4 4 4 3 3 3 4 4 4 4 4 4 5 5 5 5 5 4 4 4 5 4 5 5 5
8 6 8 6 5 4 4 2 3 1 1 9 5 5 5 2 3 3 2 2 3 2 5 5 10 11 11 11 11 11 10 10 9 9 9 9 7 7 6 7 6 6 6 7 7 7 8 8 9 10 9 8 8 8 8 8 8 8 8 8 7 7 7 8 7 8 7 6 5 5 5 5 4 4 3 3 3 4 4 4 4 4 5 4 4 4 4 4 4 3 4 4 4 4 4 4 4
10 7 8 4 1 4 2 5 2 2 6 5 5 10 7 6 7 5 4 5 6 7 8 8 9 10 13 12 11 12 12 10 10 9 8 8 8 9 7 6 7 8 8 8 8 6 6 7 9 11 10 10 8 8 8 8 8 9 8 8 7 7 7 7 7 7 5 5 5 5 4 4 4 3 3 3 3 4 3 4 4 4 4 4 4 4 4 4 5 3 4 3 3 4 5 4 4
3 1 4 8 5 5 5 1 6 4 6 5 6 7 10 11 8 4 7 10 12 11 9 9 12 13 15 13 13 11 10 10 10 10 9 8 8 9 9 9 8 7 7 7 7 7 6 6 7 8 10 9 9 7 7 6 7 6 6 7 7 6 6 6 6 6 5 6 6 5 5 4 3 3 3 3 3 3 4 4 3 4 4 4 4 4 4 5 5 4 4 4 4 4 5 5 4
1 2 4 4 3 3 7 6 1 1 7 1 4 6 7 10 9 13 13 15 14 12 10 13 16 18 16 15 15 14 14 12 10 9 9 9 10 11 11 10 10 9 9 8 8 7 8 7 8 7 7 8 8 8 7 8 7 6 7 7 6 6 6 6 5 5 6 6 5 4 4 4 3 3 3 3 4 4 4 5 4 4 5 5 5 5 5 5 5 4 4 4 4 5 5 5 5
6 6 8 3 2 3 3 1 3 3 4 5 8 8 3 5 6 13 14 13 13 16 16 13 14 16 16 16 16 14 13 11 11 10 11 11 11 10 9 8 8 7 7 7 8 9 8 7 8 8 10 9 9 8 7 7 6 7 7 7 7 6 6 6 6 6 6 5 4 4 4 3 3 3 3 4 4 4 4 4 5 4 5 5 5 5 5 5 4 5 5 5 5 5 6 5 5
10 15 15 16 10 6 6 8 5 1 3 5 3 11 1 2 2 1 0 3 4 12 13 12 13 14 15 14 15 13 14 11 12 12 11 10 10 10 9 7 7 8 9 10 8 8 8 9 8 8 8 8 9 8 7 7 6 6 7 7 7 6 6 6 6 5 5 5 4 4 3 3 3 3 3 3 4 3 4 4 4 4 4 4 5 5 5 5 5 5 5 4 5 6 6 6 5
Wind_Direction
333 342 327 350 268 298 257 358 217 92 226 78 109 225 80 305 325 269 129 197 166 69 347 308 266 203 301 14 349 330 335 336 25 352 55 57 49 27 354 169 54 35 161 159 167 162 174 173 172 163 161 164 155 157 154 150 148 144 144 144 142 142 143 144 150 152 148 142 135 136 135 132 126 119 115 109 98 90 87 88 101 111 108 104 101 99 98 92 85 77 70 65 60 55 49 48 44
329 331 346 266 319 282 170 311 91 137 113 121 77 303 73 22 239 50 67 43 30 57 349 286 271 277 280 281 288 270 185 263 338 19 49 79 76 74 18 238 276 47 166 156 166 168 171 164 162 161 163 164 156 160 156 153 151 148 149 146 146 146 147 149 152 161 150 144 146 142 137 133 128 124 115 111 107 93 91 91 100 116 114 110 106 100 92 90 88 81 73 67 62 54 49 45 42
345 329 244 212 219 350 115 260 197 128 137 103 100 63 158 173 61 61 29 8 10 343 311 267 288 242 227 214 207 325 79 311 293 183 301 112 217 54 6 284 222 329 176 160 167 172 176 165 156 162 164 165 160 157 159 158 151 151 151 151 148 148 149 150 154 159 154 147 151 147 138 135 132 128 116 112 111 96 89 92 99 113 118 111 106 100 97 90 84 81 75 70 66 57 49 42 37
298 18 321 309 168 231 254 150 97 170 101 81 114 100 308 49 69 22 2 354 334 315 267 188 249 83 299 76 37 254 47 86 23 356 46 42 28 325 343 336 184 247 177 169 168 173 183 130 163 155 162 162 158 159 161 161 153 153 155 155 151 149 150 152 154 162 159 152 151 146 142 141 138 132 123 117 117 108 100 99 99 109 113 113 108 104 98 95 94 93 86 76 68 60 50 43 37
264 56 321 237 266 112 348 45 61 221 123 162 100 117 124 284 23 1 24 355 355 268 283 6 239 125 2 317 317 333 42 302 91 8 357 89 7 338 331 39 228 201 173 175 169 175 174 112 155 169 158 160 163 159 161 162 158 157 157 157 155 153 155 154 156 162 170 155 153 152 147 144 141 136 131 126 121 113 111 107 103 104 107 107 103 101 97 95 88 87 87 79 70 59 51 46 36
196 277 34 287 320 32 199 162 142 81 56 25 120 88 60 46 345 346 331 35 51 287 333 290 352 18 173 78 344 5 359 356 350 70 331 56 354 341 0 323 279 189 164 170 171 178 180 123 165 175 163 166 164 165 162 163 163 159 161 160 158 159 157 158 160 165 173 164 162 158 153 151 147 141 142 136 124 117 110 111 109 113 115 113 108 103 103 84 75 83 84 75 66 57 50 40 33
351 240 76 100 121 247 311 110 113 111 81 326 64 90 49 47 352 308 75 178 120 163 148 2 291 250 182 61 201 336 31 346 318 15 352 323 352 355 355 343 312 133 151 166 176 176 173 136 165 175 162 170 176 163 166 168 165 163 165 163 165 164 161 163 165 170 172 174 169 163 160 155 156 153 148 141 134 126 121 121 113 119 122 119 118 107 92 83 84 84 81 71 58 52 48 39 31
131 266 22 252 63 292 109 103 104 358 112 310 355 314 45 24 334 279 67 279 75 305 76 147 264 307 61 268 69 80 89 44 2 12 5 3 4 23 2 346 357 58 124 141 174 186 110 135 167 163 163 169 157 174 172 170 168 169 169 167 170 167 167 169 173 172 178 181 180 173 168 163 165 161 151 151 147 144 143 137 126 130 131 128 128 142 77 38 80 92 81 74 67 60 49 41 30
6 336 198 226 112 65 138 121 92 11 102 209 258 261 296 331 303 287 77 11 186 260 311 5 347 273 54 178 67 78 68 8 51 59 27 21 22 13 21 11 6 26 10 37 62 195 206 131 258 141 139 179 156 178 177 174 174 172 171 173 173 176 173 179 176 176 180 186 189 182 170 178 175 165 165 158 159 159 159 149 141 137 132 130 111 83 69 60 62 86 86 74 68 59 50 42 34
116 311 143 50 88 142 143 132 175 94 40 54 311 345 331 226 239 260 334 126 30 304 59 350 301 17 325 95 123 70 25 5 26 36 17 20 19 33 44 32 31 28 23 222 197 209 199 68 1 312 303 80 190 176 189 177 179 180 178 179 180 182 184 177 184 188 185 183 191 197 180 192 179 169 180 170 170 166 164 157 147 136 136 114 97 90 69 77 85 90 87 80 67 56 49 42 36
234 64 355 191 163 146 187 151 119 137 129 119 199 304 326 300 270 243 274 352 58 336 36 169 183 32 255 95 46 95 165 23 22 5 1 14 28 20 43 43 40 36 40 231 212 235 223 216 89 301 302 253 256 197 187 191 195 188 188 186 189 191 187 181 188 190 197 193 189 196 194 204 182 178 187 187 175 168 168 161 150 147 124 126 102 81 69 77 89 91 84 77 65 57 46 41 40
208 357 237 203 184 216 149 139 122 103 113 175 103 67 27 294 254 290 41 343 36 185 53 270 29 308 239 154 128 126 45 23 19 3 353 10 38 42 22 49 45 45 47 59 211 209 241 220 222 180 279 291 267 258 202 196 197 206 197 196 199 193 197 194 182 191 193 202 199 204 205 213 187 186 188 208 205 180 170 166 164 155 135 119 95 77 84 100 97 91 89 80 71 56 48 41 42
50 283 178 200 74 269 72 153 113 97 147 104 75 77 271 262 340 2 354 297 329 267 99 357 335 254 289 347 80 171 28 9 1 357 353 12 43 61 56 56 54 50 43 51 85 61 306 274 234 229 219 275 285 302 283 206 205 210 204 208 206 187 190 198 190 183 189 199 202 213 202 199 195 174 190 187 198 192 178 171 168 154 146 126 104 94 102 107 100 99 94 85 76 63 48 45 43
344 334 302 169 345 107 168 91 124 169 145 111 51 328 225 258 64 321 305 336 88 357 53 4 245 325 262 292 142 19 26 358 341 345 345 18 43 58 52 59 57 52 45 42 42 37 11 323 287 264 240 232 223 206 232 274 237 202 211 216 209 196 190 184 186 177 184 206 194 196 186 135 170 160 160 174 195 223 215 166 160 159 144 118 100 107 112 112 110 106 98 90 79 70 60 50 48
95 242 77 109 116 194 46 189 167 185 127 135 63 325 278 189 259 246 309 331 54 36 60 215 336 267 75 327 79 12 342 335 330 329 339 58 57 54 50 56 64 55 49 44 45 30 21 344 297 266 256 242 235 231 227 202 229 246 199 207 230 240 214 178 175 176 178 191 199 185 157 157 151 140 149 169 169 150 255 159 143 137 137 161 135 125 122 121 119 108 104 95 86 76 65 61 52
84 187 94 150 145 219 149 202 9 195 130 165 87 287 265 138 187 227 125 324 323 117 301 52 132 342 10 353 9 335 329 323 321 315 339 57 63 58 50 41 49 53 41 31 29 29 12 356 332 285 253 239 236 237 236 236 194 216 230 218 205 205 230 238 179 176 183 184 169 159 126 182 166 168 166 157 159 178 204 232 138 153 156 181 146 135 132 132 121 117 110 102 90 80 72 65 58
176 267 169 124 156 231 142 187 169 176 109 133 156 259 297 314 126 218 73 269 279 15 334 16 61 24 50 43 349 327 331 326 332 343 31 32 23 44 38 28 16 40 27 32 24 9 0 2 350 312 268 244 242 240 239 240 217 196 190 205 198 205 198 193 227 1 211 161 173 154 163 208 231 220 184 194 156 192 171 251 178 178 176 184 158 144 145 134 121 122 120 108 98 93 92 87 65
247 156 128 145 73 214 150 172 167 33 126 131 159 22 271 258 313 75 206 195 221 290 282 89 88 77 81 88 21 4 357 9 14 35 34 31 23 23 25 20 14 13 6 5 18 9 357 356 351 326 295 251 240 240 235 233 232 184 231 215 236 208 171 202 193 210 193 227 175 183 230 228 238 244 241 190 192 185 180 191 212 167 134 155 152 148 145 129 126 126 127 117 119 114 166 206 114
2 131 275 89 193 48 166 67 135 170 99 71 111 201 265 344 313 12 312 175 8 314 106 110 118 119 85 51 27 21 19 27 26 37 40 36 26 22 16 5 10 5 5 356 1 3 360 343 346 334 316 287 248 239 234 230 235 229 237 240 231 226 215 185 214 197 220 207 233 242 251 257 247 257 276 10 307 170 262 186 200 186 142 167 167 148 136 133 135 135 136 135 125 142 175 37 35
63 277 103 100 140 94 231 176 156 254 56 174 213 145 253 34 268 10 286 312 292 3 85 150 153 65 40 29 23 14 24 33 35 35 41 38 29 18 12 7 1 4 353 348 342 354 355 345 339 326 315 308 267 243 237 233 225 231 237 229 234 226 279 237 207 205 213 219 212 225 230 221 232 242 131 188 166 230 195 162 289 285 170 167 159 149 140 150 143 141 144 133 141 169 78 60 36
100 251 94 121 155 198 178 212 229 170 213 263 260 142 241 170 226 276 314 297 206 103 51 359 359 18 39 31 19 14 24 29 30 33 36 35 32 27 11 1 353 341 343 326 353 354 354 347 338 326 321 277 290 237 243 245 235 231 244 231 229 237 219 78 260 232 212 233 236 228 227 227 223 226 216 199 222 225 232 232 179 209 245 194 167 204 190 162 175 169 159 181 144 164 170 94 24
183 25 52 107 132 234 127 183 108 171 197 222 158 254 18 97 219 228 247 264 325 29 6 30 56 49 38 21 18 26 30 30 27 28 29 26 18 14 7 358 353 343 349 355 354 349 354 347 343 333 310 280 256 233 239 252 267 236 237 245 255 262 261 241 228 233 249 282 298 273 236 227 228 241 232 229 227 218 219 226 216 194 211 238 208 231 225 214 241 216 211 192 170 182 161 143 127
235 137 253 225 162 295 126 173 180 184 169 197 236 209 98 219 235 230 238 311 41 31 32 49 59 52 50 40 34 41 36 34 29 24 18 19 17 12 5 360 357 357 354 358 348 349 353 350 347 335 304 268 207 200 195 219 229 237 242 276 262 267 289 308 294 257 235 224 261 258 248 243 246 239 241 244 238 238 243 233 204 181 191 179 201 234 241 242 255 242 249 199 171 172 179 173 149
290 74 161 178 189 240 143 217 133 205 203 245 108 104 251 186 241 121 117 60 73 63 55 67 64 62 49 50 40 39 33 29 31 29 19 18 10 6 356 354 354 351 358 355 355 345 340 338 342 349 336 235 174 170 172 183 201 223 236 236 235 238 185 321 295 344 358 33 11 314 259 262 263 253 241 239 231 233 231 218 206 194 202 212 202 195 228 258 244 236 208 191 175 190 207 192 171
220 205 156 121 231 244 225 233 221 226 244 257 179 233 234 200 129 152 83 107 101 86 77 65 59 58 48 44 36 30 28 25 25 27 28 18 10 4 9 2 0 8 3 0 347 342 333 332 341 15 51 177 141 145 152 165 177 174 115 239 197 221 253 123 75 56 45 47 44 21 340 282 273 294 246 230 233 236 229 221 219 233 238 236 202 189 179 164 200 227 220 213 191 211 214 204 191
202 55 168 176 231 246 243 251 245 238 238 173 201 235 123 139 136 88 93 114 110 112 83 55 56 52 43 37 30 26 23 20 11 11 9 3 6 14 17 10 5 14 3 356 352 341 334 332 349 11 37 67 123 126 125 128 122 181 171 63 43 48 36 45 50 35 37 28 33 18 3 343 322 287 258 237 248 226 241 238 247 250 220 201 217 232 200 195 211 213 208 70 44 245 243 231 229
277 139 256 272 310 315 164 257 229 164 256 167 241 156 120 97 268 145 100 127 137 128 79 59 63 67 57 48 39 25 28 21 10 356 12 16 18 17 9 8 11 3 359 358 354 342 329 337 359 17 37 59 100 77 89 70 56 47 43 53 40 37 48 48 53 45 41 40 34 39 29 24 14 17 359 338 283 290 225 223 251 252 214 221 263 276 252 238 269 287 87 128 202 257 264 229 242
70 308 270 233 236 244 260 242 282 261 202 201 232 120 134 149 253 62 101 142 182 127 86 70 66 63 55 48 41 30 29 20 15 18 20 17 13 3 6 3 356 354 1 356 346 338 340 349 15 29 33 40 67 65 61 66 61 54 53 58 53 51 55 55 55 51 49 41 34 38 38 28 23 40 33 34 15 17 16 17 26 27 11 8 0 354 340 319 285 44 34 353 331 288 270 252 287
39 310 297 298 286 260 61 356 25 300 123 195 193 142 162 174 138 86 85 150 165 128 99 75 62 55 47 36 43 34 28 19 21 27 20 12 4 2 2 6 355 348 357 348 347 349 354 345 22 40 53 60 65 66 66 68 67 61 58 54 53 53 55 51 51 43 43 42 41 40 46 41 43 44 56 57 59 55 53 58 50 37 36 31 31 36 31 30 21 360 13 358 335 315 320 352 312
210 125 342 295 275 239 86 303 231 284 112 132 200 253 143 135 115 71 12 182 175 152 81 64 64 57 49 45 45 49 31 27 31 27 14 7 2 0 360 2 359 356 345 348 356 8 349 317 27 56 61 64 67 68 71 71 65 67 66 62 57 54 52 54 52 47 39 40 42 46 49 46 43 46 57 64 59 59 59 58 52 44 41 52 58 56 54 40 45 37 20 347 28 360 350 323 325
273 48 239 287 301 216 114 17 332 256 79 213 228 276 146 152 147 42 7 233 229 195 95 81 66 62 62 51 48 55 48 36 30 25 20 14 3 2 359 1 1 2 359 2 6 356 7 3 27 66 65 77 77 78 78 77 74 71 69 64 60 62 61 59 47 42 42 35 37 37 41 44 39 43 56 57 48 50 57 55 44 37 36 49 63 67 75 65 59 59 37 33 14 23 358 15 17
11 271 221 151 248 132 119 81 2 277 109 202 236 260 282 163 141 20 11 65 192 155 128 101 71 51 46 55 65 65 59 52 40 34 24 13 11 360 359 359 1 2 6 352 345 9 28 21 27 73 68 70 71 74 78 79 78 76 70 68 67 66 65 61 52 45 43 42 43 39 33 40 36 46 51 51 54 60 62 59 52 46 44 53 53 58 61 64 74 79 74 84 58 40 332 7 16
86 230 267 239 209 290 294 114 59 359 288 80 245 285 120 190 150 55 35 141 174 148 141 120 104 91 70 67 61 60 84 71 50 34 21 9 11 2 357 359 359 358 358 352 352 21 42 31 29 51 63 71 76 76 75 76 78 74 73 70 68 65 61 61 56 52 50 46 42 40 27 33 35 41 45 42 53 50 59 62 59 62 66 68 69 65 60 58 66 92 74 44 20 17 31 43 46
215 144 253 331 249 199 251 101 175 26 287 196 98 256 283 107 129 100 73 97 181 155 141 138 133 97 85 87 88 77 65 48 34 16 10 8 3 3 4 2 360 0 1 6 8 25 45 42 39 38 61 73 78 76 78 80 79 79 75 70 66 62 58 57 54 50 52 49 45 41 28 34 31 40 45 48 56 54 55 55 45 33 33 42 52 59 64 65 56 49 63 42 25 26 33 18 6
214 179 221 232 215 236 276 255 93 282 162 266 215 255 263 152 147 131 85 127 188 148 152 150 157 150 134 122 98 78 67 55 34 14 5 3 5 5 6 4 7 8 14 18 23 30 48 50 57 49 59 76 85 86 87 84 82 77 73 68 62 61 57 52 50 51 47 44 41 36 35 36 32 36 46 48 56 58 58 55 52 39 43 45 41 35 32 32 42 40 47 57 56 52 47 26 350
256 190 233 272 254 219 233 218 78 333 254 246 233 251 259 191 158 144 146 152 171 147 157 164 161 150 138 128 105 99 82 73 37 21 11 17 12 7 9 6 14 20 29 28 34 35 41 52 62 61 54 64 81 92 93 88 82 78 78 73 64 54 51 49 45 46 40 40 33 34 35 38 33 32 35 42 48 51 55 52 53 47 47 49 48 45 39 31 22 26 33 30 48 59 43 6 340
82 123 205 241 256 267 135 179 99 318 279 247 253 259 259 263 163 144 151 159 169 176 182 176 166 152 146 131 130 114 103 88 54 52 45 32 27 21 16 15 20 46 38 35 41 36 32 37 53 49 26 28 65 80 75 81 84 85 71 64 67 57 56 53 52 44 42 40 35 37 36 35 32 33 33 36 41 47 47 46 45 43 46 49 51 48 43 41 34 28 33 42 36 43 33 8 2
228 236 231 247 209 264 271 129 97 149 233 276 194 255 256 255 125 131 160 183 199 191 184 178 163 160 145 151 145 143 124 124 129 103 77 63 48 37 43 38 24 49 36 39 41 37 34 37 43 35 31 44 50 57 72 69 63 68 83 75 75 64 59 56 55 46 43 41 39 37 36 34 35 36 31 34 40 41 46 46 43 41 42 48 50 46 41 38 35 32 17 43 58 41 41 12 4
176 243 234 260 253 264 271 228 140 183 183 264 173 257 261 246 118 135 181 204 196 223 248 188 169 163 162 159 152 144 143 133 121 103 94 88 73 61 65 51 49 51 53 50 45 49 44 46 41 37 41 48 47 53 68 75 78 80 86 90 86 83 69 69 68 60 53 51 45 41 38 37 36 38 35 35 36 37 43 47 45 43 42 41 47 44 39 38 32 31 30 21 14 51 42 32 18
223 203 225 239 249 186 262 127 121 170 232 332 16 283 270 182 162 164 146 225 175 315 281 273 278 188 168 160 153 149 138 137 131 121 109 94 84 79 67 60 49 57 55 54 45 52 55 55 47 50 52 54 60 61 75 81 85 89 88 91 88 85 87 79 73 65 59 55 51 47 44 43 43 44 38 40 43 41 41 44 44 42 42 41 45 47 40 36 31 29 29 28 16 33 32 35 31
211 225 233 250 206 224 247 318 135 109 233 288 289 277 272 231 202 183 139 129 152 175 225 251 257 310 346 4 339 126 135 128 122 124 112 100 84 57 52 45 44 51 49 40 30 38 51 60 64 63 63 61 68 81 87 97 103 100 102 100 98 95 85 77 73 63 59 59 58 47 42 43 45 47 44 43 44 45 43 42 43 43 44 42 45 47 45 38 31 29 25 32 26 17 32 29 38
211 214 229 241 242 243 189 98 228 251 245 167 231 287 260 98 233 206 129 165 184 149 218 202 192 192 209 197 179 148 75 7 131 118 92 71 66 67 57 47 47 51 48 33 28 36 48 64 71 78 81 76 70 58 62 109 111 114 117 110 99 88 78 66 63 65 60 57 57 55 49 45 45 46 45 44 43 43 44 41 41 43 42 41 41 44 43 40 33 30 26 27 28 21 16 32 26
238 240 205 230 241 239 181 183 171 243 251 101 290 231 272 140 166 171 153 175 174 156 221 202 192 194 200 198 180 177 168 164 138 118 117 108 90 90 71 56 51 58 50 40 51 57 65 71 70 74 81 83 71 75 65 77 79 79 83 85 91 94 96 81 81 77 75 69 64 58 54 46 42 46 43 42 41 40 42 39 40 41 41 41 39 40 38 34 32 26 21 27 27 23 20 35 26
240 65 283 206 206 204 207 197 212 257 45 95 207 237 262 280 208 89 133 181 194 197 205 205 200 195 198 193 186 180 174 170 161 147 130 104 101 91 89 70 60 55 52 56 59 59 67 71 77 80 80 80 74 77 72 75 92 91 93 91 88 89 92 99 90 81 77 75 70 61 58 51 45 44 46 42 40 39 38 39 37 39 41 38 37 40 37 31 31 30 27 26 27 29 25 26 25
296 18 215 163 196 202 172 204 220 276 319 253 177 156 250 240 203 116 154 191 212 215 197 199 197 196 194 192 187 182 178 171 164 157 150 136 119 90 83 81 64 65 49 54 59 62 71 76 80 83 82 80 74 77 86 81 88 95 97 100 95 90 95 96 94 89 83 77 74 65 60 57 53 48 45 44 40 39 38 39 38 39 39 37 36 38 36 33 33 30 26 27 26 28 29 20 22
109 131 91 86 82 75 160 209 208 192 230 244 200 178 237 263 192 176 165 243 231 206 192 194 194 190 188 188 184 183 176 170 173 160 144 130 107 87 57 79 84 64 59 67 74 78 78 82 85 85 79 78 80 82 86 86 86 93 94 98 104 105 104 100 96 91 84 78 73 67 60 57 52 51 46 42 40 39 37 36 38 36 37 35 35 34 31 30 28 28 27 27 22 26 27 27 27
130 165 108 94 82 94 94 74 191 199 243 244 195 185 216 283 190 202 189 216 203 147 171 188 187 186 191 190 184 181 178 173 174 170 162 142 104 112 118 111 94 94 80 81 82 85 85 88 92 86 82 84 81 83 85 82 81 86 96 100 104 107 107 105 101 90 87 81 77 70 66 61 55 53 49 45 40 36 39 38 37 38 36 35 32 30 26 22 21 22 23 26 28 20 15 7 14
160 155 143 127 92 139 153 117 219 238 254 91 17 209 215 230 214 216 180 79 141 163 178 182 182 187 187 186 185 181 177 175 171 171 166 160 160 150 151 132 123 111 106 99 97 96 97 96 102 97 88 86 84 83 84 84 86 89 95 100 100 101 103 100 95 93 86 84 80 79 76 71 62 56 51 46 37 31 35 36 35 38 37 32 30 27 23 17 18 22 25 23 22 19 16 10 13
210 151 156 186 173 139 212 167 221 213 240 95 47 142 205 238 243 12 45 176 164 208 185 181 179 182 184 185 182 176 174 172 174 174 167 173 173 167 165 147 142 143 127 122 117 114 111 106 110 105 97 92 91 95 96 97 97 95 97 98 95 94 93 93 92 91 88 85 82 79 74 71 63 58 49 48 39 33 33 33 33 32 32 32 27 23 20 17 11 19 23 21 21 20 15 4 12
193 182 176 182 194 197 246 195 306 304 196 23 55 128 258 354 250 252 264 99 100 119 24 184 178 176 180 178 176 173 174 180 179 174 176 178 176 171 169 162 158 148 146 138 138 131 126 119 116 109 110 106 108 106 105 102 96 97 97 97 98 98 95 93 91 91 89 85 81 77 73 70 67 61 53 47 35 34 39 38 36 37 34 29 25 22 18 16 8 13 17 15 12 14 6 358 3
198 197 183 209 190 170 209 188 220 236 76 104 246 166 237 167 197 3 344 342 24 66 41 49 164 173 172 165 158 165 179 184 178 177 182 182 179 175 171 169 161 159 154 151 149 146 135 125 122 121 120 122 120 116 112 109 105 99 98 98 99 99 97 94 91 90 91 92 87 85 79 76 77 70 62 59 44 42 40 40 37 33 29 25 21 19 12 14 8 3 14 10 5 7 355 354 349
136 233 16 341 223 170 253 24 312 70 181 182 175 231 254 230 115 103 13 142 86 114 104 157 157 153 147 157 177 185 186 181 177 181 185 186 181 176 174 173 170 162 162 161 159 157 148 136 132 128 127 130 129 125 119 116 112 108 102 97 95 95 97 99 98 96 92 91 94 90 84 76 72 71 65 53 41 38 29 27 34 34 26 23 20 18 11 9 2 359 4 3 358 360 342 344 342
172 145 204 198 12 111 100 127 87 30 306 254 146 247 235 305 212 133 174 128 176 144 159 175 167 166 171 184 187 188 186 179 177 184 186 183 179 184 185 179 172 169 171 173 170 166 156 145 138 131 131 133 134 129 124 122 118 113 107 105 107 106 106 104 106 105 102 96 91 85 81 75 68 59 52 39 33 31 29 16 18 21 18 12 10 8 3 356 344 347 357 347 353 347 333 327 332
106 217 199 73 7 351 203 245 119 217 252 266 149 219 223 145 248 116 166 198 199 198 182 185 177 172 185 194 190 191 188 181 177 182 183 180 183 185 185 185 182 179 174 172 170 170 162 152 145 140 143 140 139 135 130 128 124 117 118 118 113 110 108 109 110 110 104 100 93 85 80 72 59 53 49 33 29 23 22 17 14 10 10 5 3 360 354 346 338 339 339 330 339 331 320 318 314
227 167 124 164 192 208 182 230 241 193 236 265 203 223 245 206 211 131 202 198 202 200 180 174 188 191 198 194 195 192 180 173 180 184 178 180 185 186 188 188 183 180 177 172 170 169 161 151 149 149 145 145 142 138 132 125 127 127 129 127 124 118 113 108 106 104 100 94 85 81 79 76 71 53 40 32 23 21 15 9 10 3 2 360 358 353 348 344 338 340 338 336 339 334 324 317 311
59 142 185 2 315 220 161 207 306 177 254 141 256 127 249 185 217 175 195 199 196 176 172 198 198 195 192 192 190 189 186 185 178 177 180 185 189 191 187 183 182 180 178 178 172 168 167 160 156 146 137 138 139 138 137 135 134 135 131 128 124 119 116 114 109 104 97 92 90 89 85 75 62 47 39 30 27 19 13 9 6 4 0 0 357 353 348 342 335 342 334 335 333 326 318 313 314
161 185 186 170 224 351 332 352 202 215 240 230 282 272 228 176 198 184 193 194 186 172 189 194 197 199 197 193 188 186 183 178 178 177 183 186 186 183 182 184 178 171 178 180 177 174 169 164 163 157 153 151 150 148 146 143 142 142 139 135 131 128 122 113 107 103 101 96 93 84 72 71 64 48 32 26 23 16 7 5 359 359 359 351 351 347 344 338 336 334 329 326 321 324 321 318 319
188 178 187 184 157 169 188 227 95 235 214 240 181 257 95 164 54 295 36 25 164 187 184 184 193 193 191 193 193 182 180 177 176 180 181 179 178 181 183 172 168 175 186 187 181 175 171 174 169 165 162 161 157 158 156 150 151 148 146 142 136 131 125 115 112 107 97 95 87 75 67 60 59 48 37 20 20 11 1 355 350 350 349 344 340 338 336 335 333 329 328 328 322 324 322 320 322